Date String (YYYY-MM-DD hh:mm:ss) UTC,Instrument flags,Ambient pressure (hPa),Sample flow (lpm),Bypass flow (lpm),Sample temperature (°C),Ambient temperature (°C),ASC tube jacket temperature (°C),LED temperature (°C),Box temperature (°C),Sample RH (%),Span deviation,Mass concentration (μg/m³),Mass concentration (μg/m³),Mass concentration (μg/m³)
DateTimeUTC,F1_M11,P_M11,Q1_M11,Q2_M11,T1_M11,T2_M11,T3_M11,T4_M11,T5_M11,U1_M11,ZSPAN_M11,X2_M11,X0_M11,X1_M11
2022-08-16 00:00:00,,0830.1,5.00,0.00,32.1,27.7,00.0,39.7,32.2,34.6,0000.0,0003.24,0005.38,0002.71
2022-08-16 00:01:00,,0830.1,4.99,0.00,32.2,27.9,00.0,39.7,32.2,34.6,0000.0,0003.23,0006.22,0002.68
2022-08-16 00:02:00,,0830.1,5.01,0.00,32.2,28.1,00.0,39.8,32.2,34.5,0000.0,0003.19,0006.36,0002.64
2022-08-16 00:03:00,,0830.1,5.00,0.00,32.1,28.2,00.0,39.8,32.2,34.4,0000.0,0003.16,0006.25,0002.57
2022-08-16 00:04:00,,0830.1,5.01,0.00,32.1,28.3,00.0,39.9,32.2,34.4,0000.0,0003.13,0006.13,0002.53
2022-08-16 00:05:00,,0830.1,4.98,0.00,32.1,28.4,00.0,39.9,32.2,34.3,0000.0,0003.11,0006.06,0002.50
2022-08-16 00:06:00,,0830.0,5.00,0.00,32.0,28.5,00.0,39.9,32.2,35.1,0000.0,0003.08,0006.49,0002.48
2022-08-16 00:07:00,,0830.1,5.01,0.00,32.1,28.6,00.0,40.0,32.3,36.0,0000.0,0003.10,0007.13,0002.49
2022-08-16 00:08:00,,0830.0,4.99,0.00,32.3,28.7,00.0,40.0,32.5,35.8,0000.0,0003.09,0007.11,0002.50
2022-08-16 00:09:00,,0830.0,5.00,0.00,32.7,28.8,00.0,40.0,32.7,35.2,0000.0,0003.11,0007.22,0002.48
2022-08-16 00:10:00,,0830.1,4.99,0.00,33.0,28.8,00.0,40.1,32.9,34.2,0000.0,0003.14,0007.37,0002.47
2022-08-16 00:11:00,,0830.1,4.99,0.00,33.1,28.9,00.0,40.1,32.8,33.5,0000.0,0003.15,0007.40,0002.48
2022-08-16 00:12:00,,0830.1,5.01,0.00,33.2,29.0,00.0,40.2,32.8,33.1,0000.0,0003.16,0006.53,0002.47
2022-08-16 00:13:00,,0830.1,4.99,0.00,33.1,29.0,00.0,40.3,32.8,32.9,0000.0,0003.16,0005.88,0002.46
2022-08-16 00:14:00,,0830.1,5.00,0.00,33.1,28.8,00.0,40.4,32.7,33.1,0000.0,0003.20,0006.21,0002.46
2022-08-16 00:15:00,,0830.1,5.01,0.00,33.1,28.2,00.0,40.4,32.5,33.3,0000.0,0003.21,0006.35,0002.44
2022-08-16 00:16:00,,0830.1,5.00,0.00,33.0,27.9,00.0,40.4,32.5,33.4,0000.0,0003.17,0006.23,0002.41
2022-08-16 00:17:00,,0830.0,5.00,0.00,32.8,27.8,00.0,40.4,32.3,33.6,0000.0,0003.16,0005.98,0002.38
2022-08-16 00:18:00,,0830.1,4.99,0.00,32.6,27.9,00.0,40.5,32.3,33.7,0000.0,0003.11,0004.97,0002.35
2022-08-16 00:19:00,,0830.1,5.01,0.00,32.5,28.0,00.0,40.5,32.3,34.0,0000.0,0003.13,0005.04,0002.32
2022-08-16 00:20:00,,0830.1,5.01,0.00,32.4,28.1,00.0,40.4,32.3,33.8,0000.0,0003.09,0004.91,0002.29
2022-08-16 00:21:00,,0830.1,4.99,0.00,32.3,28.3,00.0,40.4,32.4,33.5,0000.0,0003.04,0004.80,0002.25
2022-08-16 00:22:00,,0830.1,5.00,0.00,32.2,28.4,00.0,40.4,32.4,33.6,0000.0,0003.02,0004.79,0002.22
2022-08-16 00:23:00,,0830.1,4.99,0.00,32.2,28.5,00.0,40.4,32.4,32.8,0000.0,0002.94,0004.61,0002.19
2022-08-16 00:24:00,,0830.2,5.01,0.00,32.1,28.6,00.0,40.4,32.4,32.3,0000.0,0002.93,0004.65,0002.17
2022-08-16 00:25:00,,0830.1,5.00,0.00,32.0,28.7,00.0,40.4,32.4,32.9,0000.0,0002.89,0004.46,0002.15
2022-08-16 00:26:00,,0830.1,5.00,0.00,32.0,28.8,00.0,40.3,32.4,34.1,0000.0,0002.83,0004.23,0002.15
2022-08-16 00:27:00,,0830.1,5.01,0.00,31.9,28.8,00.0,40.3,32.5,34.6,0000.0,0002.88,0004.34,0002.17
2022-08-16 00:28:00,,0830.1,4.99,0.00,31.9,28.9,00.0,40.3,32.5,34.8,0000.0,0002.90,0004.38,0002.17
2022-08-16 00:29:00,,0830.1,5.00,0.00,31.8,29.0,00.0,40.3,32.5,34.6,0000.0,0002.90,0004.64,0002.16
2022-08-16 00:30:00,,0830.1,5.01,0.00,31.8,29.0,00.0,40.2,32.5,34.6,0000.0,0002.82,0005.34,0002.14
2022-08-16 00:31:00,,0830.1,5.00,0.00,31.8,29.1,00.0,40.2,32.5,34.8,0000.0,0002.81,0005.38,0002.13
2022-08-16 00:32:00,,0830.1,4.99,0.00,31.7,28.9,00.0,40.2,32.5,34.5,0000.0,0002.81,0005.39,0002.13
2022-08-16 00:33:00,,0830.1,5.00,0.00,31.6,28.2,00.0,40.1,32.2,34.1,0000.0,0002.79,0005.37,0002.12
2022-08-16 00:34:00,,0830.2,5.00,0.00,31.5,27.6,00.0,40.0,32.1,34.5,0000.0,0002.85,0005.61,0002.13
2022-08-16 00:35:00,,0830.1,5.01,0.00,31.4,27.3,00.0,39.9,31.9,34.7,0000.0,0002.91,0005.75,0002.14
2022-08-16 00:36:00,,0830.2,5.01,0.00,31.2,27.3,00.0,39.9,31.8,34.5,0000.0,0002.91,0005.80,0002.14
2022-08-16 00:37:00,,0830.1,5.01,0.00,31.1,27.4,00.0,39.8,31.9,35.0,0000.0,0002.93,0005.85,0002.11
2022-08-16 00:38:00,,0830.1,5.00,0.00,31.1,27.6,00.0,39.8,31.9,34.8,0000.0,0002.83,0005.62,0002.07
2022-08-16 00:39:00,,0830.1,5.01,0.00,31.2,27.8,00.0,39.7,32.0,34.3,0000.0,0002.80,0005.63,0002.02
2022-08-16 00:40:00,,0830.2,4.99,0.00,31.2,27.9,00.0,39.7,32.0,34.0,0000.0,0002.82,0005.59,0002.00
2022-08-16 00:41:00,,0830.2,5.01,0.00,31.2,28.1,00.0,39.6,32.0,34.3,0000.0,0002.84,0004.73,0001.98
2022-08-16 00:42:00,,0830.2,5.00,0.00,31.2,28.2,00.0,39.6,32.0,34.4,0000.0,0002.77,0004.52,0001.95
2022-08-16 00:43:00,,0830.2,5.01,0.00,31.2,28.3,00.0,39.6,32.0,35.1,0000.0,0002.77,0004.52,0001.94
2022-08-16 00:44:00,,0830.2,4.99,0.00,31.2,28.4,00.0,39.6,32.1,34.2,0000.0,0002.76,0004.51,0001.93
2022-08-16 00:45:00,,0830.2,5.00,0.00,31.3,28.5,00.0,39.6,32.2,33.9,0000.0,0002.74,0004.38,0001.91
2022-08-16 00:46:00,,0830.3,5.00,0.00,31.3,28.6,00.0,39.6,32.2,34.4,0000.0,0002.73,0004.40,0001.89
2022-08-16 00:47:00,,0830.3,5.00,0.00,31.3,28.6,00.0,39.6,32.2,34.3,0000.0,0002.71,0004.37,0001.88
2022-08-16 00:48:00,,0830.4,5.00,0.00,31.3,28.7,00.0,39.6,32.2,33.3,0000.0,0002.67,0004.36,0001.89
2022-08-16 00:49:00,,0830.4,4.99,0.00,31.3,28.8,00.0,39.6,32.2,32.8,0000.0,0002.67,0004.40,0001.89
2022-08-16 00:50:00,,0830.5,5.00,0.00,31.3,28.8,00.0,39.6,32.2,33.4,0000.0,0002.71,0004.50,0001.90
2022-08-16 00:51:00,,0830.4,5.00,0.00,31.3,28.9,00.0,39.7,32.2,33.3,0000.0,0002.71,0004.48,0001.90
2022-08-16 00:52:00,,0830.4,5.01,0.00,31.2,28.9,00.0,39.7,32.3,33.1,0000.0,0002.69,0004.40,0001.90
2022-08-16 00:53:00,,0830.4,5.00,0.00,31.2,29.0,00.0,39.7,32.3,33.0,0000.0,0002.67,0004.39,0001.90
2022-08-16 00:54:00,,0830.5,5.00,0.00,31.2,29.0,00.0,39.7,32.3,32.7,0000.0,0002.64,0004.30,0001.89
2022-08-16 00:55:00,,0830.5,5.00,0.00,31.2,28.5,00.0,39.6,32.2,32.9,0000.0,0002.63,0004.35,0001.88
2022-08-16 00:56:00,,0830.5,5.01,0.00,31.1,27.9,00.0,39.6,32.0,33.0,0000.0,0002.59,0004.34,0001.88
2022-08-16 00:57:00,,0830.5,5.01,0.00,31.0,27.7,00.0,39.5,31.9,33.3,0000.0,0002.55,0004.19,0001.88
2022-08-16 00:58:00,,0830.5,4.98,0.00,30.9,27.7,00.0,39.5,31.9,34.1,0000.0,0002.51,0004.02,0001.87
2022-08-16 00:59:00,,0830.5,4.99,0.00,30.8,27.8,00.0,39.5,31.9,35.6,0000.0,0002.53,0004.10,0001.88
